| time (UTC) | temp F | wind direction | speed MPH | gust MPH | rain 1hr in | rain 24hr in | rain mn in | humidity % | barometer mb |
| 20260906064551 | 71 | 238 | 0.0 | 4.0 | 0.00 | 0.00 | 0.00 | 91 | 1016.1 |
| 20260906064001 | 71 | 295 | 0.0 | 4.0 | 0.00 | 0.00 | 0.00 | 91 | 1015.9 |
| 20260906063536 | 71 | 190 | 1.0 | 3.0 | 0.00 | 0.00 | 0.00 | 91 | 1015.9 |
| 20260906063109 | 71 | 186 | 0.0 | 3.0 | 0.00 | 0.00 | 0.00 | 91 | 1016.0 |
| 20260906062542 | 71 | 184 | 0.0 | 2.0 | 0.00 | 0.00 | 0.00 | 92 | 1016.0 |
| 20260906062034 | 71 | 184 | 0.0 | 2.0 | 0.00 | 0.00 | 0.00 | 92 | 1016.1 |
| 20260906061516 | 71 | 184 | 0.0 | 2.0 | 0.00 | 0.00 | 0.00 | 92 | 1016.0 |
| 20260906061010 | 71 | 184 | 0.0 | 3.0 | 0.00 | 0.00 | 0.00 | 92 | 1016.0 |
| 20260906060558 | 71 | 184 | 0.0 | 3.0 | 0.00 | 0.00 | 0.00 | 92 | 1016.1 |
| 20260906060034 | 71 | 218 | 0.0 | 2.0 | 0.00 | 0.00 | 0.00 | 93 | 1016.2 |
| 20260906055519 | 71 | 222 | 0.0 | 4.0 | 0.00 | 0.00 | 0.00 | 93 | 1016.1 |
| 20260906055055 | 71 | 222 | 0.0 | 4.0 | 0.00 | 0.00 | 0.00 | 94 | 1016.0 |
| 20260906054536 | 70 | 207 | 0.0 | 1.0 | 0.00 | 0.00 | 0.00 | 94 | 1015.9 |
| 20260906054002 | 70 | 207 | 0.0 | 1.0 | 0.00 | 0.00 | 0.00 | 94 | 1016.0 |
| 20260906053527 | 70 | 206 | 0.0 | 0.0 | 0.00 | 0.00 | 0.00 | 94 | 1016.0 |
| 20260906053005 | 70 | 205 | 0.0 | 0.0 | 0.00 | 0.00 | 0.00 | 94 | 1016.1 |
| 20260906052537 | 70 | 205 | 0.0 | 0.0 | 0.00 | 0.00 | 0.00 | 94 | 1016.1 |
| 20260906052017 | 70 | 205 | 0.0 | 0.0 | 0.00 | 0.00 | 0.00 | 94 | 1015.9 |
| 20260906051603 | 70 | 205 | 0.0 | 0.0 | 0.00 | 0.00 | 0.00 | 94 | 1015.9 |
| 20260906051022 | 70 | 205 | 0.0 | 0.0 | 0.00 | 0.00 | 0.00 | 94 | 1016.0 |
| 20260906050601 | 70 | 205 | 0.0 | 0.0 | 0.00 | 0.00 | 0.00 | 94 | 1016.2 |
| 20260906050037 | 70 | 205 | 0.0 | 0.0 | 0.00 | 0.00 | 0.00 | 93 | 1016.3 |
| 20260906045609 | 71 | 205 | 0.0 | 0.0 | 0.00 | 0.00 | 0.00 | 93 | 1016.3 |
| 20260906045039 | 71 | 205 | 0.0 | 0.0 | 0.00 | 0.00 | 0.00 | 93 | 1016.3 |
| 20260906044510 | 71 | 205 | 0.0 | 0.0 | 0.00 | 0.00 | 0.00 | 93 | 1016.3 |
| 20260906044004 | 71 | 205 | 0.0 | 0.0 | 0.00 | 0.00 | 0.00 | 93 | 1016.4 |
| 20260906043531 | 71 | 205 | 0.0 | 0.0 | 0.00 | 0.00 | 0.00 | 93 | 1016.4 |
| 20260906043010 | 71 | 205 | 0.0 | 0.0 | 0.00 | 0.00 | 0.00 | 93 | 1016.4 |
| 20260906042543 | 71 | 205 | 0.0 | 0.0 | 0.00 | 0.00 | 0.00 | 93 | 1016.4 |
| 20260906042108 | 71 | 205 | 0.0 | 0.0 | 0.00 | 0.00 | 0.00 | 93 | 1016.5 |
| 20260906041545 | 71 | 205 | 0.0 | 0.0 | 0.00 | 0.00 | 0.00 | 93 | 1016.5 |
| 20260906041016 | 71 | 205 | 0.0 | 0.0 | 0.00 | 0.00 | 0.00 | 93 | 1016.4 |
| 20260906040538 | 71 | 205 | 0.0 | 0.0 | 0.00 | 0.00 | 0.00 | 93 | 1016.4 |
| 20260906040003 | 71 | 205 | 0.0 | 0.0 | 0.00 | 0.00 | 0.00 | 92 | 1016.5 |
| 20260906035533 | 71 | 205 | 0.0 | 0.0 | 0.00 | 0.00 | 0.00 | 92 | 1016.4 |
| 20260906035054 | 71 | 205 | 0.0 | 0.0 | 0.00 | 0.00 | 0.00 | 92 | 1016.5 |
| 20260906034519 | 71 | 205 | 0.0 | 0.0 | 0.00 | 0.00 | 0.00 | 92 | 1016.4 |
| 20260906034047 | 71 | 205 | 0.0 | 0.0 | 0.00 | 0.00 | 0.00 | 92 | 1016.4 |
| 20260906033614 | 71 | 205 | 0.0 | 0.0 | 0.00 | 0.00 | 0.00 | 92 | 1016.4 |
| 20260906033100 | 71 | 205 | 0.0 | 0.0 | 0.00 | 0.00 | 0.00 | 92 | 1016.3 |
| 20260906032539 | 71 | 205 | 0.0 | 0.0 | 0.00 | 0.00 | 0.00 | 91 | 1016.3 |
| 20260906032056 | 72 | 205 | 0.0 | 0.0 | 0.00 | 0.00 | 0.00 | 92 | 1016.3 |
| 20260906031530 | 72 | 205 | 0.0 | 0.0 | 0.00 | 0.00 | 0.00 | 92 | 1016.2 |
| 20260906031004 | 72 | 205 | 0.0 | 0.0 | 0.00 | 0.00 | 0.00 | 91 | 1016.3 |
| 20260906030524 | 72 | 205 | 0.0 | 0.0 | 0.00 | 0.00 | 0.00 | 91 | 1016.4 |
| 20260906030107 | 72 | 205 | 0.0 | 0.0 | 0.00 | 0.00 | 0.00 | 91 | 1016.5 |
| 20260906025542 | 72 | 205 | 0.0 | 0.0 | 0.00 | 0.00 | 0.00 | 91 | 1016.4 |
| 20260906025103 | 72 | 205 | 0.0 | 0.0 | 0.00 | 0.00 | 0.00 | 92 | 1016.5 |
| 20260906024511 | 72 | 205 | 0.0 | 0.0 | 0.00 | 0.00 | 0.00 | 90 | 1016.6 |
| 20260906024034 | 73 | 205 | 0.0 | 0.0 | 0.00 | 0.00 | 0.00 | 90 | 1016.6 |
| 20260906023556 | 73 | 205 | 0.0 | 0.0 | 0.00 | 0.00 | 0.00 | 90 | 1016.5 |
| 20260906023021 | 73 | 205 | 0.0 | 0.0 | 0.00 | 0.00 | 0.00 | 89 | 1016.5 |
| 20260906022604 | 73 | 205 | 0.0 | 0.0 | 0.00 | 0.00 | 0.00 | 89 | 1016.3 |
| 20260906022017 | 73 | 205 | 0.0 | 0.0 | 0.00 | 0.00 | 0.00 | 89 | 1016.2 |
| 20260906021503 | 73 | 205 | 0.0 | 2.0 | 0.00 | 0.00 | 0.00 | 88 | 1016.1 |
| 20260906021029 | 73 | 205 | 0.0 | 2.0 | 0.00 | 0.00 | 0.00 | 88 | 1015.9 |
| 20260906020502 | 73 | 205 | 0.0 | 0.0 | 0.00 | 0.00 | 0.00 | 87 | 1015.7 |
| 20260906020037 | 74 | 205 | 0.0 | 0.0 | 0.00 | 0.00 | 0.00 | 87 | 1015.6 |
| 20260906015503 | 74 | 205 | 0.0 | 0.0 | 0.00 | 0.00 | 0.00 | 86 | 1015.4 |
| 20260906015040 | 74 | 205 | 0.0 | 0.0 | 0.00 | 0.00 | 0.00 | 86 | 1015.4 |
| 20260906014600 | 74 | 205 | 0.0 | 0.0 | 0.00 | 0.00 | 0.00 | 85 | 1015.2 |
| 20260906014010 | 75 | 205 | 0.0 | 0.0 | 0.00 | 0.00 | 0.00 | 84 | 1015.1 |
| 20260906013530 | 75 | 205 | 0.0 | 1.0 | 0.00 | 0.00 | 0.00 | 84 | 1014.9 |
| 20260906013102 | 75 | 205 | 0.0 | 3.0 | 0.00 | 0.00 | 0.00 | 84 | 1014.8 |
| 20260906012544 | 75 | 205 | 0.0 | 3.0 | 0.00 | 0.00 | 0.00 | 84 | 1014.6 |
| 20260906012104 | 76 | 183 | 1.0 | 3.0 | 0.00 | 0.00 | 0.00 | 83 | 1014.6 |
| 20260906011516 | 76 | 186 | 1.0 | 3.0 | 0.00 | 0.00 | 0.00 | 83 | 1014.4 |
| 20260906011034 | 76 | 196 | 1.0 | 2.0 | 0.00 | 0.00 | 0.00 | 82 | 1014.4 |
| 20260906010508 | 76 | 196 | 0.0 | 3.0 | 0.00 | 0.00 | 0.00 | 82 | 1014.4 |
| 20260906010033 | 77 | 196 | 1.0 | 3.0 | 0.00 | 0.00 | 0.00 | 82 | 1014.4 |
| 20260906005505 | 77 | 194 | 0.0 | 3.0 | 0.00 | 0.00 | 0.00 | 81 | 1014.4 |
| 20260906005044 | 77 | 186 | 1.0 | 4.0 | 0.00 | 0.00 | 0.00 | 81 | 1014.3 |
| 20260906004607 | 77 | 194 | 1.0 | 4.0 | 0.00 | 0.00 | 0.00 | 81 | 1014.3 |
| 20260906004023 | 77 | 204 | 1.0 | 5.0 | 0.00 | 0.00 | 0.00 | 80 | 1014.2 |
| 20260906003600 | 78 | 148 | 2.0 | 5.0 | 0.00 | 0.00 | 0.00 | 80 | 1014.2 |
| 20260906003008 | 78 | 162 | 2.0 | 5.0 | 0.00 | 0.00 | 0.00 | 79 | 1014.2 |
| 20260906002527 | 78 | 173 | 1.0 | 7.0 | 0.00 | 0.00 | 0.00 | 79 | 1014.2 |
| 20260906002002 | 78 | 142 | 2.0 | 5.0 | 0.00 | 0.00 | 0.00 | 78 | 1014.2 |
| 20260906001546 | 79 | 195 | 2.0 | 5.0 | 0.00 | 0.00 | 0.00 | 77 | 1014.0 |
| 20260906001106 | 79 | 174 | 2.0 | 7.0 | 0.00 | 0.00 | 0.00 | 77 | 1013.9 |
| 20260906000516 | 79 | 248 | 2.0 | 7.0 | 0.00 | 0.00 | 0.00 | 76 | 1013.9 |
| 20260906000051 | 79 | 247 | 1.0 | 6.0 | 0.00 | 0.00 | 0.00 | 76 | 1013.9 |
| 20260905235509 | 80 | 163 | 2.0 | 6.0 | 0.00 | 0.00 | 0.00 | 75 | 1013.7 |
| 20260905235030 | 80 | 157 | 1.0 | 5.0 | 0.00 | 0.00 | 0.00 | 75 | 1013.7 |
| 20260905234507 | 81 | 175 | 2.0 | 9.0 | 0.00 | 0.00 | 0.00 | 74 | 1013.8 |
| 20260905234002 | 81 | 199 | 2.0 | 9.0 | 0.00 | 0.00 | 0.00 | 74 | 1013.8 |
| 20260905233524 | 81 | 217 | 2.0 | 6.0 | 0.00 | 0.00 | 0.00 | 73 | 1013.9 |
| 20260905233051 | 81 | 177 | 2.0 | 6.0 | 0.00 | 0.00 | 0.00 | 73 | 1013.9 |
| 20260905232516 | 81 | 163 | 3.0 | 8.0 | 0.00 | 0.00 | 0.00 | 73 | 1013.7 |
| 20260905232036 | 82 | 147 | 2.0 | 8.0 | 0.00 | 0.00 | 0.00 | 73 | 1013.6 |
| 20260905231556 | 82 | 150 | 1.0 | 7.0 | 0.00 | 0.00 | 0.00 | 73 | 1013.6 |
| 20260905231030 | 82 | 165 | 2.0 | 10.0 | 0.00 | 0.00 | 0.00 | 73 | 1013.5 |
| 20260905230550 | 82 | 172 | 4.0 | 10.0 | 0.00 | 0.00 | 0.00 | 71 | 1013.4 |
| 20260905230020 | 82 | 192 | 3.0 | 8.0 | 0.00 | 0.00 | 0.00 | 71 | 1013.5 |
| 20260905225602 | 82 | 164 | 2.0 | 8.0 | 0.00 | 0.00 | 0.00 | 71 | 1013.4 |
| 20260905225026 | 82 | 110 | 2.0 | 7.0 | 0.00 | 0.00 | 0.00 | 71 | 1013.3 |
| 20260905224616 | 83 | 173 | 2.0 | 6.0 | 0.00 | 0.00 | 0.00 | 71 | 1013.1 |
| 20260905224025 | 83 | 150 | 3.0 | 9.0 | 0.00 | 0.00 | 0.00 | 71 | 1013.1 |
| 20260905223602 | 83 | 151 | 4.0 | 9.0 | 0.00 | 0.00 | 0.00 | 71 | 1013.1 |
| 20260905223046 | 82 | 161 | 2.0 | 7.0 | 0.00 | 0.00 | 0.00 | 71 | 1012.9 |
| 20260905222602 | 82 | 167 | 2.0 | 8.0 | 0.00 | 0.00 | 0.00 | 72 | 1012.9 |
| 20260905222012 | 82 | 152 | 3.0 | 9.0 | 0.00 | 0.00 | 0.00 | 71 | 1013.0 |
| 20260905221531 | 82 | 142 | 3.0 | 9.0 | 0.00 | 0.00 | 0.00 | 72 | 1013.0 |
| 20260905221054 | 82 | 171 | 4.0 | 8.0 | 0.00 | 0.00 | 0.00 | 72 | 1013.1 |
| 20260905220525 | 81 | 155 | 3.0 | 8.0 | 0.00 | 0.00 | 0.00 | 73 | 1013.2 |
| 20260905215520 | 81 | 148 | 3.0 | 7.0 | 0.00 | 0.00 | 0.00 | 72 | 1013.4 |
| 20260905215058 | 81 | 173 | 2.0 | 5.0 | 0.00 | 0.00 | 0.00 | 73 | 1013.4 |
| 20260905214501 | 81 | 180 | 2.0 | 5.0 | 0.00 | 0.00 | 0.00 | 72 | 1013.5 |
| 20260905214042 | 81 | 65 | 2.0 | 5.0 | 0.00 | 0.00 | 0.00 | 72 | 1013.6 |
| 20260905213602 | 81 | 137 | 1.0 | 6.0 | 0.00 | 0.00 | 0.00 | 73 | 1013.6 |
| 20260905213036 | 82 | 174 | 1.0 | 6.0 | 0.00 | 0.00 | 0.00 | 73 | 1013.6 |
| 20260905212555 | 82 | 183 | 2.0 | 6.0 | 0.00 | 0.00 | 0.00 | 72 | 1013.5 |
| 20260905212003 | 82 | 180 | 1.0 | 5.0 | 0.00 | 0.00 | 0.00 | 73 | 1013.5 |
| 20260905211546 | 83 | 203 | 1.0 | 9.0 | 0.00 | 0.00 | 0.00 | 72 | 1013.5 |
| 20260905211013 | 83 | 80 | 3.0 | 9.0 | 0.00 | 0.00 | 0.00 | 70 | 1013.5 |
| 20260905210607 | 84 | 158 | 2.0 | 8.0 | 0.00 | 0.00 | 0.00 | 71 | 1013.5 |
| 20260905210036 | 84 | 142 | 3.0 | 11.0 | 0.00 | 0.00 | 0.00 | 72 | 1013.4 |
| 20260905205601 | 84 | 115 | 3.0 | 11.0 | 0.00 | 0.00 | 0.00 | 70 | 1013.4 |
| 20260905205012 | 84 | 148 | 4.0 | 12.0 | 0.00 | 0.00 | 0.00 | 72 | 1013.4 |
| 20260905204532 | 83 | 82 | 2.0 | 12.0 | 0.00 | 0.00 | 0.00 | 74 | 1013.4 |
| 20260905204004 | 83 | 202 | 5.0 | 11.0 | 0.00 | 0.00 | 0.00 | 72 | 1013.6 |
| 20260905203552 | 84 | 163 | 3.0 | 10.0 | 0.00 | 0.00 | 0.00 | 72 | 1013.7 |
| 20260905203022 | 84 | 123 | 2.0 | 10.0 | 0.00 | 0.00 | 0.00 | 74 | 1013.9 |
| 20260905202606 | 84 | 141 | 2.0 | 9.0 | 0.00 | 0.00 | 0.00 | 75 | 1013.9 |
| 20260905202041 | 84 | 217 | 1.0 | 6.0 | 0.00 | 0.00 | 0.00 | 76 | 1014.0 |
| 20260905201510 | 84 | 161 | 3.0 | 6.0 | 0.00 | 0.00 | 0.00 | 75 | 1014.2 |
| 20260905201055 | 83 | 178 | 2.0 | 6.0 | 0.00 | 0.00 | 0.00 | 75 | 1014.2 |
| 20260905200512 | 83 | 167 | 2.0 | 9.0 | 0.00 | 0.00 | 0.00 | 76 | 1014.5 |
| 20260905200029 | 82 | 153 | 3.0 | 9.0 | 0.00 | 0.00 | 0.00 | 73 | 1014.7 |
| 20260905195509 | 82 | 144 | 3.0 | 9.0 | 0.00 | 0.00 | 0.00 | 75 | 1014.8 |
| 20260905195030 | 82 | 227 | 2.0 | 9.0 | 0.00 | 0.00 | 0.00 | 75 | 1014.8 |
| 20260905194554 | 82 | 200 | 3.0 | 8.0 | 0.00 | 0.00 | 0.00 | 76 | 1014.8 |
| 20260905194037 | 82 | 140 | 2.0 | 6.0 | 0.00 | 0.00 | 0.00 | 77 | 1014.8 |
| 20260905193557 | 81 | 151 | 2.0 | 7.0 | 0.00 | 0.00 | 0.00 | 78 | 1014.9 |
| 20260905193032 | 81 | 157 | 1.0 | 5.0 | 0.00 | 0.00 | 0.00 | 79 | 1015.0 |
| 20260905192555 | 81 | 159 | 2.0 | 5.0 | 0.00 | 0.00 | 0.00 | 78 | 1015.0 |
| 20260905192033 | 81 | 163 | 1.0 | 6.0 | 0.00 | 0.00 | 0.00 | 79 | 1015.2 |
| 20260905191516 | 80 | 182 | 2.0 | 6.0 | 0.00 | 0.00 | 0.00 | 78 | 1015.2 |
| 20260905191055 | 80 | 191 | 0.0 | 3.0 | 0.00 | 0.00 | 0.00 | 77 | 1015.2 |
| 20260905190512 | 80 | 190 | 1.0 | 3.0 | 0.00 | 0.00 | 0.00 | 78 | 1015.3 |
| 20260905190038 | 81 | 161 | 2.0 | 3.0 | 0.00 | 0.00 | 0.00 | 77 | 1015.4 |
| 20260905185501 | 81 | 196 | 0.0 | 2.0 | 0.00 | 0.00 | 0.00 | 77 | 1015.4 |
| 20260905185036 | 81 | 196 | 0.0 | 3.0 | 0.00 | 0.00 | 0.00 | 77 | 1015.4 |
| 20260905184526 | 81 | 195 | 1.0 | 5.0 | 0.00 | 0.00 | 0.00 | 76 | 1015.3 |
| 20260905184039 | 81 | 166 | 1.0 | 5.0 | 0.00 | 0.00 | 0.00 | 77 | 1015.3 |
| 20260905183531 | 81 | 184 | 1.0 | 4.0 | 0.00 | 0.00 | 0.00 | 79 | 1015.3 |
| 20260905183104 | 81 | 172 | 2.0 | 4.0 | 0.00 | 0.00 | 0.00 | 79 | 1015.3 |
| 20260905182519 | 80 | 164 | 0.0 | 5.0 | 0.00 | 0.00 | 0.00 | 78 | 1015.4 |
| 20260905182047 | 80 | 164 | 2.0 | 5.0 | 0.00 | 0.00 | 0.00 | 79 | 1015.4 |
| 20260905181524 | 80 | 240 | 2.0 | 5.0 | 0.00 | 0.00 | 0.00 | 79 | 1015.4 |
| 20260905181005 | 79 | 159 | 2.0 | 6.0 | 0.00 | 0.00 | 0.00 | 80 | 1015.5 |
| 20260905180539 | 79 | 144 | 1.0 | 6.0 | 0.00 | 0.00 | 0.00 | 80 | 1015.6 |
| 20260905180040 | 79 | 159 | 1.0 | 5.0 | 0.00 | 0.00 | 0.00 | 80 | 1015.6 |
| 20260905175527 | 79 | 174 | 3.0 | 5.0 | 0.00 | 0.00 | 0.00 | 81 | 1015.7 |
| 20260905175052 | 79 | 117 | 0.0 | 5.0 | 0.00 | 0.00 | 0.00 | 83 | 1015.7 |
| 20260905174530 | 78 | 146 | 1.0 | 5.0 | 0.00 | 0.00 | 0.00 | 83 | 1015.7 |
| 20260905174104 | 78 | 146 | 2.0 | 8.0 | 0.00 | 0.00 | 0.00 | 85 | 1015.9 |
| 20260905173531 | 77 | 157 | 1.0 | 5.0 | 0.00 | 0.00 | 0.00 | 84 | 1016.1 |
| 20260905173111 | 77 | 168 | 1.0 | 4.0 | 0.00 | 0.00 | 0.00 | 86 | 1016.2 |
| 20260905172532 | 76 | 194 | 2.0 | 5.0 | 0.00 | 0.00 | 0.00 | 87 | 1016.3 |
| 20260905172053 | 75 | 179 | 1.0 | 6.0 | 0.00 | 0.00 | 0.00 | 89 | 1016.3 |
| 20260905171530 | 74 | 161 | 2.0 | 6.0 | 0.00 | 0.00 | 0.00 | 89 | 1016.4 |
| 20260905171017 | 74 | 148 | 2.0 | 6.0 | 0.00 | 0.00 | 0.00 | 89 | 1016.5 |
| 20260905170552 | 74 | 174 | 1.0 | 5.0 | 0.00 | 0.00 | 0.00 | 89 | 1016.5 |
| 20260905170044 | 74 | 165 | 2.0 | 8.0 | 0.00 | 0.00 | 0.00 | 89 | 1016.6 |
| 20260905165530 | 74 | 132 | 2.0 | 8.0 | 0.00 | 0.00 | 0.00 | 89 | 1016.4 |
| 20260905165026 | 74 | 155 | 1.0 | 5.0 | 0.00 | 0.00 | 0.00 | 89 | 1016.5 |
| 20260905164525 | 73 | 178 | 0.0 | 5.0 | 0.00 | 0.00 | 0.00 | 89 | 1016.5 |
| 20260905164050 | 73 | 159 | 1.0 | 6.0 | 0.00 | 0.00 | 0.00 | 89 | 1016.5 |
| 20260905163545 | 73 | 153 | 2.0 | 6.0 | 0.00 | 0.00 | 0.00 | 90 | 1016.5 |
| 20260905163037 | 73 | 167 | 1.0 | 6.0 | 0.00 | 0.00 | 0.00 | 90 | 1016.6 |
| 20260905162551 | 73 | 187 | 0.0 | 6.0 | 0.00 | 0.00 | 0.00 | 91 | 1016.5 |
| 20260905162032 | 73 | 167 | 2.0 | 4.0 | 0.00 | 0.00 | 0.00 | 91 | 1016.4 |
| 20260905161507 | 73 | 153 | 2.0 | 6.0 | 0.00 | 0.00 | 0.00 | 91 | 1016.3 |
| 20260905161052 | 73 | 155 | 3.0 | 6.0 | 0.00 | 0.00 | 0.00 | 92 | 1016.3 |
| 20260905160530 | 72 | 163 | 0.0 | 5.0 | 0.00 | 0.00 | 0.00 | 93 | 1016.3 |
| 20260905160018 | 72 | 154 | 2.0 | 5.0 | 0.00 | 0.00 | 0.00 | 93 | 1016.2 |
| 20260905155548 | 72 | 176 | 1.0 | 5.0 | 0.00 | 0.00 | 0.00 | 93 | 1016.2 |
| 20260905155107 | 72 | 163 | 1.0 | 5.0 | 0.00 | 0.00 | 0.00 | 94 | 1016.1 |
| 20260905154539 | 72 | 163 | 2.0 | 5.0 | 0.00 | 0.00 | 0.00 | 95 | 1016.2 |
| 20260905154002 | 71 | 146 | 0.0 | 4.0 | 0.00 | 0.00 | 0.00 | 96 | 1016.2 |
| 20260905153530 | 71 | 139 | 2.0 | 4.0 | 0.00 | 0.00 | 0.00 | 96 | 1016.3 |
| 20260905153052 | 71 | 128 | 0.0 | 2.0 | 0.00 | 0.00 | 0.00 | 96 | 1016.4 |
| 20260905152527 | 70 | 128 | 0.0 | 3.0 | 0.00 | 0.00 | 0.00 | 96 | 1016.4 |
| 20260905152004 | 70 | 129 | 1.0 | 3.0 | 0.00 | 0.00 | 0.00 | 97 | 1016.1 |
| 20260905151539 | 70 | 138 | 0.0 | 5.0 | 0.00 | 0.00 | 0.00 | 97 | 1016.1 |
| 20260905151022 | 70 | 167 | 1.0 | 5.0 | 0.00 | 0.00 | 0.00 | 97 | 1015.7 |
| 20260905150555 | 70 | 160 | 0.0 | 5.0 | 0.00 | 0.00 | 0.00 | 97 | 1015.7 |
| 20260905150006 | 70 | 160 | 1.0 | 5.0 | 0.00 | 0.00 | 0.00 | 97 | 1015.6 |
| 20260905145525 | 70 | 167 | 0.0 | 3.0 | 0.00 | 0.00 | 0.00 | 97 | 1015.6 |
| 20260905145005 | 70 | 168 | 0.0 | 4.0 | 0.00 | 0.00 | 0.00 | 98 | 1015.5 |
| 20260905144543 | 69 | 153 | 0.0 | 3.0 | 0.00 | 0.00 | 0.00 | 98 | 1015.4 |
| 20260905144104 | 69 | 152 | 1.0 | 3.0 | 0.00 | 0.00 | 0.00 | 98 | 1015.5 |
| 20260905143537 | 69 | 95 | 0.0 | 3.0 | 0.00 | 0.00 | 0.00 | 98 | 1015.5 |
| 20260905143103 | 69 | 87 | 0.0 | 3.0 | 0.00 | 0.00 | 0.00 | 98 | 1015.6 |
| 20260905142510 | 69 | 109 | 0.0 | 3.0 | 0.00 | 0.00 | 0.00 | 98 | 1015.5 |
| 20260905142027 | 69 | 101 | 0.0 | 2.0 | 0.00 | 0.00 | 0.00 | 98 | 1015.6 |
| 20260905141553 | 69 | 98 | 0.0 | 4.0 | 0.00 | 0.00 | 0.00 | 98 | 1015.6 |
| 20260905141024 | 69 | 144 | 0.0 | 3.0 | 0.00 | 0.00 | 0.00 | 98 | 1015.5 |
| 20260905140541 | 69 | 92 | 0.0 | 2.0 | 0.00 | 0.00 | 0.00 | 98 | 1015.6 |
| 20260905135511 | 68 | 79 | 0.0 | 3.0 | 0.00 | 0.00 | 0.00 | 98 | 1015.6 |
| 20260905135031 | 68 | 97 | 0.0 | 3.0 | 0.00 | 0.00 | 0.00 | 98 | 1015.6 |
| 20260905134554 | 68 | 97 | 0.0 | 3.0 | 0.00 | 0.00 | 0.00 | 98 | 1015.7 |
| 20260905134002 | 68 | 134 | 0.0 | 1.0 | 0.00 | 0.00 | 0.00 | 98 | 1015.7 |
| 20260905133526 | 68 | 134 | 0.0 | 3.0 | 0.00 | 0.00 | 0.00 | 98 | 1015.7 |
| 20260905133106 | 68 | 135 | 0.0 | 3.0 | 0.00 | 0.00 | 0.00 | 98 | 1015.7 |
| 20260905132545 | 68 | 136 | 0.0 | 0.0 | 0.00 | 0.00 | 0.00 | 98 | 1015.6 |
| 20260905132013 | 68 | 136 | 0.0 | 1.0 | 0.00 | 0.00 | 0.00 | 97 | 1015.4 |
| 20260905131550 | 68 | 136 | 0.0 | 1.0 | 0.00 | 0.00 | 0.00 | 97 | 1015.4 |
| 20260905131031 | 68 | 136 | 0.0 | 1.0 | 0.00 | 0.00 | 0.00 | 97 | 1015.3 |
| 20260905130552 | 68 | 136 | 0.0 | 2.0 | 0.00 | 0.00 | 0.00 | 97 | 1015.3 |
| 20260905130007 | 68 | 137 | 0.0 | 0.0 | 0.00 | 0.00 | 0.00 | 97 | 1015.0 |
| 20260905125548 | 68 | 137 | 0.0 | 3.0 | 0.00 | 0.00 | 0.00 | 97 | 1015.0 |
| 20260905125107 | 68 | 137 | 0.0 | 3.0 | 0.00 | 0.00 | 0.00 | 97 | 1014.8 |
| 20260905124515 | 68 | 142 | 0.0 | 3.0 | 0.00 | 0.00 | 0.00 | 97 | 1014.4 |
| 20260905124036 | 67 | 111 | 0.0 | 6.0 | 0.00 | 0.00 | 0.00 | 97 | 1014.3 |
| 20260905123555 | 67 | 148 | 1.0 | 6.0 | 0.00 | 0.00 | 0.00 | 97 | 1014.1 |
| 20260905123019 | 67 | 113 | 0.0 | 4.0 | 0.00 | 0.00 | 0.00 | 97 | 1014.0 |
| 20260905122503 | 67 | 84 | 1.0 | 4.0 | 0.00 | 0.00 | 0.00 | 97 | 1014.0 |
| 20260905122021 | 67 | 143 | 0.0 | 3.0 | 0.00 | 0.00 | 0.00 | 97 | 1014.1 |
| 20260905121557 | 67 | 90 | 0.0 | 2.0 | 0.00 | 0.00 | 0.00 | 97 | 1014.3 |
| 20260905121015 | 67 | 90 | 0.0 | 1.0 | 0.00 | 0.00 | 0.00 | 97 | 1014.3 |
| 20260905120537 | 67 | 84 | 0.0 | 0.0 | 0.00 | 0.00 | 0.00 | 97 | 1014.4 |
| 20260905120058 | 67 | 84 | 0.0 | 1.0 | 0.00 | 0.00 | 0.00 | 97 | 1014.5 |
| 20260905115505 | 67 | 84 | 0.0 | 1.0 | 0.00 | 0.00 | 0.00 | 97 | 1014.5 |
| 20260905115044 | 67 | 85 | 0.0 | 1.0 | 0.00 | 0.00 | 0.00 | 97 | 1014.4 |
| 20260905114523 | 67 | 76 | 0.0 | 1.0 | 0.00 | 0.00 | 0.00 | 97 | 1014.3 |
| 20260905114049 | 67 | 75 | 0.0 | 1.0 | 0.00 | 0.00 | 0.00 | 97 | 1014.2 |
| 20260905113519 | 67 | 75 | 0.0 | 4.0 | 0.00 | 0.00 | 0.00 | 97 | 1014.1 |
| 20260905113056 | 67 | 104 | 0.0 | 3.0 | 0.00 | 0.00 | 0.00 | 97 | 1014.0 |
| 20260905112531 | 67 | 119 | 0.0 | 3.0 | 0.00 | 0.00 | 0.00 | 97 | 1014.1 |
| 20260905112057 | 67 | 159 | 0.0 | 5.0 | 0.00 | 0.00 | 0.00 | 97 | 1014.0 |
| 20260905111538 | 67 | 159 | 0.0 | 5.0 | 0.00 | 0.00 | 0.00 | 97 | 1014.1 |
| 20260905111109 | 67 | 132 | 0.0 | 2.0 | 0.00 | 0.00 | 0.00 | 97 | 1014.0 |
| 20260905110518 | 67 | 132 | 0.0 | 2.0 | 0.00 | 0.00 | 0.00 | 97 | 1014.1 |
| 20260905110004 | 67 | 128 | 0.0 | 2.0 | 0.00 | 0.00 | 0.00 | 97 | 1014.1 |
| 20260905105533 | 67 | 119 | 0.0 | 2.0 | 0.00 | 0.00 | 0.00 | 97 | 1014.1 |
| 20260905105056 | 67 | 119 | 0.0 | 4.0 | 0.00 | 0.00 | 0.00 | 97 | 1014.1 |
| 20260905104528 | 67 | 103 | 1.0 | 5.0 | 0.00 | 0.00 | 0.00 | 97 | 1014.0 |
| 20260905104001 | 67 | 159 | 1.0 | 5.0 | 0.00 | 0.00 | 0.00 | 97 | 1014.0 |
| 20260905103525 | 67 | 148 | 0.0 | 5.0 | 0.00 | 0.00 | 0.00 | 96 | 1013.9 |
| 20260905103041 | 67 | 142 | 1.0 | 5.0 | 0.00 | 0.00 | 0.00 | 97 | 1013.8 |
| 20260905102602 | 67 | 126 | 0.0 | 2.0 | 0.00 | 0.00 | 0.00 | 96 | 1013.8 |
| 20260905102029 | 67 | 126 | 0.0 | 4.0 | 0.00 | 0.00 | 0.00 | 96 | 1013.9 |
| 20260905101602 | 67 | 117 | 0.0 | 4.0 | 0.00 | 0.00 | 0.00 | 96 | 1013.7 |
| 20260905101004 | 67 | 146 | 0.0 | 5.0 | 0.00 | 0.00 | 0.00 | 96 | 1013.5 |
| 20260905100530 | 67 | 138 | 1.0 | 5.0 | 0.00 | 0.00 | 0.00 | 96 | 1013.5 |
| 20260905100004 | 67 | 157 | 0.0 | 4.0 | 0.00 | 0.00 | 0.00 | 96 | 1013.9 |
| 20260905095542 | 67 | 128 | 0.0 | 6.0 | 0.00 | 0.00 | 0.00 | 96 | 1013.8 |
| 20260905095017 | 67 | 51 | 2.0 | 8.0 | 0.00 | 0.00 | 0.00 | 96 | 1013.4 |
| 20260905094550 | 67 | 85 | 1.0 | 8.0 | 0.00 | 0.00 | 0.00 | 96 | 1013.2 |
| 20260905094014 | 67 | 185 | 1.0 | 5.0 | 0.00 | 0.00 | 0.00 | 96 | 1013.0 |
| 20260905093533 | 67 | 173 | 1.0 | 6.0 | 0.00 | 0.00 | 0.00 | 96 | 1013.0 |
| 20260905093059 | 67 | 175 | 2.0 | 6.0 | 0.00 | 0.00 | 0.00 | 96 | 1013.0 |
| 20260905092538 | 67 | 121 | 1.0 | 5.0 | 0.00 | 0.00 | 0.00 | 96 | 1013.1 |
| 20260905092022 | 67 | 92 | 2.0 | 6.0 | 0.00 | 0.00 | 0.00 | 96 | 1013.1 |
| 20260905091614 | 67 | 125 | 0.0 | 6.0 | 0.00 | 0.00 | 0.00 | 96 | 1013.2 |
| 20260905091023 | 67 | 156 | 1.0 | 5.0 | 0.00 | 0.00 | 0.00 | 96 | 1013.1 |
| 20260905090546 | 67 | 61 | 1.0 | 5.0 | 0.00 | 0.00 | 0.00 | 96 | 1013.3 |
| 20260905090107 | 67 | 39 | 1.0 | 5.0 | 0.00 | 0.00 | 0.00 | 96 | 1013.5 |
| 20260905085522 | 67 | 136 | 0.0 | 6.0 | 0.00 | 0.00 | 0.00 | 96 | 1013.5 |
| 20260905085039 | 67 | 101 | 0.0 | 7.0 | 0.00 | 0.00 | 0.00 | 96 | 1013.5 |
| 20260905084514 | 67 | 141 | 0.0 | 11.0 | 0.00 | 0.00 | 0.00 | 96 | 1013.4 |
| 20260905084053 | 67 | 155 | 0.0 | 11.0 | 0.00 | 0.00 | 0.00 | 96 | 1013.4 |
| 20260905083505 | 67 | 119 | 0.0 | 5.0 | 0.00 | 0.00 | 0.00 | 95 | 1013.6 |
| 20260905083108 | 67 | 86 | 2.0 | 5.0 | 0.00 | 0.00 | 0.00 | 95 | 1013.5 |
| 20260905082528 | 66 | 142 | 0.0 | 3.0 | 0.00 | 0.00 | 0.00 | 95 | 1013.4 |
| 20260905082003 | 66 | 140 | 0.0 | 3.0 | 0.00 | 0.00 | 0.00 | 95 | 1013.5 |
| 20260905081530 | 66 | 140 | 0.0 | 3.0 | 0.00 | 0.00 | 0.00 | 95 | 1013.4 |
| 20260905081056 | 66 | 94 | 0.0 | 3.0 | 0.00 | 0.00 | 0.00 | 94 | 1013.5 |
| 20260905080533 | 66 | 103 | 0.0 | 3.0 | 0.00 | 0.00 | 0.00 | 94 | 1013.5 |
| 20260905080101 | 66 | 103 | 0.0 | 3.0 | 0.00 | 0.00 | 0.00 | 94 | 1013.6 |
| 20260905075521 | 66 | 91 | 0.0 | 3.0 | 0.00 | 0.00 | 0.00 | 94 | 1013.6 |
| 20260905075054 | 66 | 90 | 0.0 | 3.0 | 0.00 | 0.00 | 0.00 | 94 | 1013.6 |
| 20260905074522 | 66 | 84 | 0.0 | 2.0 | 0.00 | 0.00 | 0.00 | 94 | 1013.6 |
| 20260905074001 | 67 | 84 | 0.0 | 2.0 | 0.00 | 0.00 | 0.00 | 94 | 1013.7 |
| 20260905073539 | 67 | 84 | 0.0 | 3.0 | 0.00 | 0.00 | 0.00 | 94 | 1013.8 |
| 20260905073018 | 67 | 83 | 0.0 | 3.0 | 0.00 | 0.00 | 0.00 | 93 | 1013.6 |
| 20260905072605 | 67 | 81 | 0.0 | 3.0 | 0.00 | 0.00 | 0.00 | 93 | 1013.6 |
| 20260905072054 | 67 | 109 | 0.0 | 2.0 | 0.00 | 0.00 | 0.00 | 93 | 1013.5 |
| 20260905071521 | 67 | 117 | 0.0 | 3.0 | 0.00 | 0.00 | 0.00 | 93 | 1013.7 |
| 20260905071011 | 67 | 116 | 0.0 | 3.0 | 0.00 | 0.00 | 0.00 | 93 | 1013.8 |
| 20260905070503 | 67 | 95 | 0.0 | 1.0 | 0.00 | 0.00 | 0.00 | 93 | 1013.8 |
| 20260905065543 | 67 | 96 | 0.0 | 0.0 | 0.00 | 0.00 | 0.00 | 92 | 1013.7 |
| 20260905065011 | 67 | 96 | 0.0 | 1.0 | 0.00 | 0.00 | 0.00 | 92 | 1013.7 |